Find Starlink 30894

NORAD ID: 58375 Int'l Des: 2023-178 Owner: SPXS Country: US Constellation: starlink operational
LEOCIRCULAR

現在のビュー

3D地球を読み込み中...

About Starlink 30894

Starlink 30894 (NORAD 58375) is a starlink constellation satellite (v2 mini) launched Nov 20, 2023 by SPXS of US. It operates in LEO, CIRCULAR orbit with a mass of 730.00 kg.

次回通過

Passes for default location (London). Set your location on the main map for personalized predictions.

高度履歴

Loading altitude history...

軌道要素

1 58375U 23178B 26234.49670502 .00007965 00000-0 24661-3 0 9998
2 58375 53.1593 307.6317 0001234 96.1882 263.9261 15.34401060155258
Epoch: Aug 22, 2026 • Age: 40 hours

現在のステータス

高度 473.4 km
遠地点 / 近地点 N/A
速度 7.63 km/s
衛星直下点 -33.09°S, 116.9°E
打ち上げ日 Nov 20, 2023
運用期間 2.7 years
タイプ internet

技術仕様

分類 Payload
質量 730.00 kg
乾燥質量 700.00 kg
総質量 730.00 kg
長さ 0.30 m
直径 4.10 m
スパン 29.00 m
形状 Box + pan
製造者 SPXS
バスタイプ Starlink V2M
フェーズステータス In Orbit
所有者/国 SPXS/US

Most Searched